Location: Hannover
(52.3723°N, 9.7339°E)
Time: 00:09:12
(UTC+01:00)

N. Korean satellite - Visible Passes

Search period start: 19 November 2017 00:00
Search period end: 29 November 2017 00:00
Orbit: 460 x 515 km, 97.2° (Epoch: 17 November)

Date Brightness Start Highest point End Pass type
(mag) Time Alt. Az. Time Alt. Az. Time Alt. Az.
19 Nov 10.3 05:56:24 10° ENE 05:57:27 11° E 05:58:31 10° ESE visible
19 Nov 6.4 18:09:27 10° SSE 18:12:58 89° SW 18:16:35 10° NNW visible
20 Nov 7.6 07:04:20 10° NNE 07:08:00 55° E 07:11:42 10° S visible
20 Nov 6.7 17:46:07 10° SSE 17:49:31 49° ENE 17:53:01 10° N visible
20 Nov 9.6 19:21:07 10° SW 19:23:21 16° W 19:25:38 10° NW visible
21 Nov 8.8 06:41:04 10° NNE 06:44:26 31° E 06:47:48 10° SSE visible
21 Nov 7.4 17:23:04 10° SE 17:26:09 28° ENE 17:29:18 10° N visible
21 Nov 8.7 18:56:37 10° SSW 18:59:40 27° W 19:02:47 10° NW visible
22 Nov 9.8 06:18:04 10° NE 06:20:47 19° E 06:23:29 10° SE visible
22 Nov 8.0 17:00:24 10° ESE 17:02:51 18° ENE 17:05:21 10° NNE visible
22 Nov 7.5 18:32:37 10° S 18:36:03 48° W 18:39:35 10° NNW visible
23 Nov 10.2 05:55:56 10° ENE 05:57:03 11° E 05:58:10 10° ESE visible
23 Nov 6.5 18:08:58 10° SSE 18:12:31 90° WSW 18:16:11 10° NNW visible
24 Nov 7.6 07:03:53 10° NNE 07:07:35 55° E 07:11:17 10° S visible
24 Nov 6.7 17:45:36 10° SSE 17:49:04 49° ENE 17:52:36 10° N visible
24 Nov 9.6 19:20:35 10° SW 19:22:53 16° W 19:25:14 10° NW visible
25 Nov 8.8 06:40:36 10° NNE 06:43:59 31° E 06:47:22 10° SSE visible
25 Nov 7.4 17:22:33 10° SE 17:25:41 29° ENE 17:28:52 10° N visible
25 Nov 8.7 18:56:05 10° SSW 18:59:11 27° W 19:02:21 10° NW visible
26 Nov 9.7 06:17:36 10° NE 06:20:19 19° E 06:23:01 10° SE visible
26 Nov 8.0 16:59:51 10° ESE 17:02:21 18° ENE 17:04:53 10° NNE visible
26 Nov 7.5 18:32:04 10° S 18:35:33 49° W 18:39:07 10° NNW visible
27 Nov 10.2 05:55:25 10° ENE 05:56:33 11° E 05:57:41 10° ESE visible
27 Nov 6.5 18:08:25 10° SSE 18:12:00 90° NE 18:15:41 10° NNW visible
28 Nov 7.6 07:03:21 10° NNE 07:07:05 54° E 07:10:47 10° S visible
28 Nov 6.7 17:45:02 10° SSE 17:48:31 49° ENE 17:52:05 10° N visible
28 Nov 9.6 19:19:58 10° SW 19:22:20 17° W 19:24:45 10° NW visible
